カタログに戻る

STARLINK-5100

運用中通信VLEO
NORAD 55495·PAYLOAD·🇺🇸 United States

打ち上げ Feb 2, 2023 から Cape Canaveral Space Force Station

Loading…

次のパス (今後24時間)

TLE

最新Source: CelesTrak SupGP

元期: Sep 15, 2026, 02:37 UTC

1 55495C 23015AY  26258.10951389  .00034006  00000+0  12319-2 0  2586
2 55495  43.0025 331.7660 0001428 263.5857  90.1233 15.27556124    18

AllMySatでSTARLINK-5100をリアルタイム追跡

Download on the App Store